Regional Weather Roundup
Issued by NWS

Home | Current Version | Previous Version | Graphics & Text | Print | Product List | Glossary On
Versions: 1 2 3 4 5 6 7 8 9 10 11 12 13 14 15 16 17 18 19 20 21 22 23 24 25 26 27 28 29 30 31 32 33 34 35 36 37 38 39 40 41 42 43 44 45 46 47
000
ASUS45 KTFX 280910
RWRMT
MONTANA REGIONAL WEATHER ROUNDUP
NATIONAL WEATHER SERVICE GREAT FALLS MT
300 AM MDT TUE JUL 28 2015

NOTE: "FAIR" INDICATES FEW OR NO CLOUDS BELOW 12000 FEET WITH NO
SIGNIFICANT WEATHER AND/OR OBSTRUCTIONS TO VISIBILITY.

MTZ001>007-043-281000-
WEST OF THE DIVIDE

CITY           SKY/WX    TMP DP  RH WIND       PRES   REMARKS
KALISPELL      PTSUNNY   48  45  89 SW6       30.13R
MISSOULA       CLOUDY    49  47  93 CALM      30.19S
BUTTE          MOCLDY    44  37  76 N3        30.21R
MULLAN PASS    PTCLDY    41  37  86 W6        30.22R
DEER LODGE       N/A     48  43  81 CALM      30.23R
EUREKA           N/A     43  43 100 CALM      30.15R VSB 1/2
HAMILTON         N/A     52  41  66 S8        30.21R
LIBBY            N/A     45  43  93 CALM      30.16R
RONAN            N/A     51  48  89 CALM      30.19R
$$

MTZ008-052>055-281000-
SOUTHWEST MONTANA

CITY           SKY/WX    TMP DP  RH WIND       PRES   REMARKS
BOZEMAN        CLOUDY    49  44  83 CALM      30.16S
DILLON         PTCLDY    42  36  79 SW12      30.21S
W YELLOWSTONE  CLEAR     37  36  93 SW8       30.23S WCI  31
TWIN BRIDGES     N/A     44  36  73 E6        30.17S
$$

MTZ009-010-012-014-046-048-049-054-281000-
EAST SLOPES AND CENTRAL MONTANA

CITY           SKY/WX    TMP DP  RH WIND       PRES   REMARKS
CUT BANK       CLOUDY    52  44  74 W18       30.02R
GREAT FALLS    CLOUDY    51  47  86 SW10      30.02S
MALMSTROM AFB  LGT RAIN  51  49  91 SW10      30.03S
HELENA         CLOUDY    53  40  61 W15G22    30.10F
$$

MTZ011-013-016-021-045-047-050-051-281000-
NORTH CENTRAL MONTANA

CITY           SKY/WX    TMP DP  RH WIND       PRES   REMARKS
HAVRE          HVY RAIN  54  53  97 NW17G29   29.84S
LEWISTOWN      RAIN      50  46  86 W23G32    29.98S
CHINOOK          N/A     55  55 100 W21G28    29.78F
FORT BENTON      N/A     54  50  87 W10       29.98R
$$

MTZ017>020-022>027-061-062-281000-
NORTHEAST MONTANA

CITY           SKY/WX    TMP DP  RH WIND       PRES   REMARKS
GLASGOW        LGT RAIN  56  53  90 W25G32    29.64F
SIDNEY         CLOUDY    61  54  77 SW18G24   29.65S
WOLF POINT     CLOUDY    59  54  83 W22G35    29.62F
PLENTYWOOD       N/A     61  59  94 SW12G22   29.54R
POPLAR           N/A     59  55  88 SW17G29   29.62F
$$

MTZ028>42-056>058-281000-
SOUTHCENTRAL AND SOUTHEAST MONTANA

CITY           SKY/WX    TMP DP  RH WIND       PRES   REMARKS
BAKER          CLOUDY    56  51  84 W18       29.81R
BILLINGS       MOCLDY    55  40  56 W24G33    29.99R
LIVINGSTON     CLOUDY    51  39  63 W17       30.11R
MILES CITY     CLOUDY    57  48  72 W17G26    29.83F
FORSYTH          N/A     55  46  71 W15G23    29.86R
LAUREL           N/A     56  38  50 W20       29.98S
ROUNDUP          N/A     54  44  68 SW20      29.86S
$$

REGIONAL REPORTS...DAKOTAS

CITY           SKY/WX    TMP DP  RH WIND       PRES   REMARKS
WILLISTON      CLOUDY    62  57  83 SW29G40   29.58F
MINOT          CLOUDY    68  58  70 S13       29.51F
DICKINSON      MOCLDY    58  54  86 W25G33    29.69R
BEACH          CLOUDY    55  55 100 W24G36    29.74F
CROSBY         CLOUDY    63  63 100 SW20G29   29.52R
BISMARCK       CLOUDY    68  60  75 SW8       29.63S
GRAND FORKS    CLOUDY    73  71  93 SE13      29.59F
FARGO          CLOUDY    76  70  82 SE13G23   29.62F
BUFFALO SD       N/A     56  49  77 W24       29.79R
RAPID CITY     CLEAR     56  49  77 NW14      29.87S
$$

REGIONAL REPORTS...WYOMING/IDAHO/WASHINGTON

CITY           SKY/WX    TMP DP  RH WIND       PRES   REMARKS
GILLETTE       CLEAR     48  44  86 W8        30.01R
SHERIDAN       PTCLDY    48  43  82 S7        29.98S
BUFFALO WY     CLEAR     49  45  86 S6        30.04R
CODY           CLEAR     54  30  40 W12G28    30.07R
YELLOWSTONE LA   N/A     34  31  88 CALM      30.26F
IDAHO FALLS    CLEAR     43  40  89 N5        30.23S
SALMON         CLOUDY    46  39  76 S5        30.26S
BOISE          CLEAR     56  37  49 CALM      30.19S
SPOKANE        PTCLDY    56  40  55 S5        30.13R
$$

REGIONAL REPORTS...ALBERTA

CITY           SKY/WX    TMP DP  RH WIND       PRES   REMARKS
EDMONTON       PTCLDY    55  43  62 W8        29.93S
CALGARY        CLEAR     48  39  71 VRB2      30.03R
LETHBRIDGE     MOCLDY    54  43  66 W14       30.00S
MEDICINE HAT   CLOUDY    57  52  82 NW15G21   29.86S
WATERTON GATE    N/A     50  43  76 SW13G20     N/A
CARDSTON         N/A     52  41  66 W10         N/A
ONEFOUR          N/A     54  52  94 NW24        N/A
$$

REGIONAL REPORTS...SASKATCHEWAN

CITY           SKY/WX    TMP DP  RH WIND       PRES   REMARKS
SWIFT CURRENT  RAIN      54 N/A N/A N21G26    29.63F
REGINA         CLOUDY    63  61  94 E17G32    29.41F
SASKATOON      LGT RAIN  59  57  94 N18       29.68F
CYPRESS HILLS    N/A     50  48  93 NW13G28     N/A
VAL MARIE        N/A     57  55  94 N13         N/A
ROCKGLEN         N/A     55  54  94 W9          N/A
$$



USA.gov is the U.S. government's official web portal to all federal, state and local government web resources and services.